Flag for USA Past Weather in Avalon (Santa Catalina Island), California, USA — Yesterday and Last 2 Weeks

Now
72 °F

Sunny.


Feels Like: 75 °F
Forecast: 59 / 73 °F
Wind: 12 mph from West

Location: Catalina Airport

Current Time: Apr 30, 2017 at 7:21:40 pm

Latest Report: Apr 30, 2017 at 5:51 pm


Visibility: 10 mi

Pressure: 29.97 "Hg

Humidity: 22%

Dew Point: 31 °F

Location of Avalon (Santa Catalina Island)Location

Past Weather in Avalon (Santa Catalina Island) — Graph

°F

Avalon (Santa Catalina Island) Temperature Yesterday

Maximum temperature yesterday: 76 °F (at 1:51 pm)
Minimum temperature yesterday: 62 °F (at 7:51 pm)
Average temperature yesterday: 67 °F

High & Low Weather Summary for the Past Weeks

 TemperatureHumidityPressure
High83 °F (Apr 22, 12:51 pm)100% (Apr 18, 7:51 pm)30.15 "Hg (Apr 18, 7:51 pm)
Low52 °F (Apr 23, 9:17 pm)10% (Apr 29, 1:51 pm)29.71 "Hg (Apr 28, 4:51 am)
Average63 °F59%29.91 "Hg
* Reported Apr 18 7:51 pm — Apr 30 4:51 pm, Avalon (Santa Catalina Island), Weather by CustomWeather, © 2017

Note: Actual official high and low records may vary slightly from our data, if they occured in-between our weather recording intervals... More about our weather records

Advertising

Avalon (Santa Catalina Island) Weather History for the Previous 24 Hours

Scroll right to see more
 ConditionsComfort  
Time TempWeatherWind HumidityBarometerVisibility
4:51 pm
Sun, Apr 30
73 °FSunny.13 mph20%29.98 "Hg10 mi
3:51 pm73 °FSunny.16 mph20%29.99 "Hg10 mi
2:51 pm74 °FSunny.14 mph20%30.02 "Hg10 mi
1:51 pm75 °FSunny.10 mph20%30.04 "Hg10 mi
12:51 pm77 °FSunny.9 mph21%30.04 "Hg10 mi
11:51 am77 °FSunny.5 mph22%30.06 "Hg10 mi
10:51 am76 °FSunny.6 mph29%30.06 "Hg10 mi
9:51 am76 °FSunny.5 mph17%30.06 "Hg10 mi
8:51 am75 °FSunny.3 mph17%30.05 "Hg10 mi
7:51 am73 °FSunny.5 mph13%30.04 "Hg10 mi
6:51 am70 °FSunny.6 mph16%30.03 "Hg10 mi
5:51 am70 °FClear.7 mph16%30.01 "Hg10 mi
4:51 am70 °FClear.6 mph16%30.01 "Hg10 mi
3:51 am67 °FClear.7 mph24%30.02 "Hg10 mi
2:51 am67 °FClear.10 mph30%30.02 "Hg10 mi
1:51 am66 °FClear.12 mph29%30.03 "Hg10 mi
12:51 am67 °FClear.12 mph29%30.04 "Hg10 mi
11:51 pm
Sat, Apr 29
66 °FClear.13 mph31%30.03 "Hg10 mi
10:51 pm66 °FClear.15 mph23%30.03 "Hg10 mi
9:51 pm68 °FClear.12 mph14%30.03 "Hg10 mi
8:51 pm67 °FClear.14 mph17%30.02 "Hg10 mi
7:51 pm62 °FClear.10 mph37%30.01 "Hg10 mi
Weather by CustomWeather, © 2017

See weather overviewHow to use our weather pages